Temperature
17 17 17 17 17 17 17 17 17 17 17 17 17 17 17 17 17 17 17 17 17 17 17 17 17 17 17 17 17 17 17 17 16 16 16 16 16 16 16 16 16 16 16
17 17 17 17 17 17 17 17 17 17 17 17 17 17 17 17 17 17 17 17 17 17 17 17 17 17 17 17 17 17 17 17 17 16 16 16 16 16 16 16 16 16 16
17 17 17 17 17 17 17 17 17 17 17 17 17 17 17 17 17 17 17 17 17 17 17 17 17 17 17 17 17 17 17 16 17 16 16 16 16 16 16 16 16 16 16
17 17 17 17 17 17 17 17 17 17 17 17 17 17 17 17 17 17 17 17 17 17 17 17 17 17 17 17 17 17 16 16 16 16 16 16 16 16 16 16 16 16 16
18 17 17 17 17 17 17 17 18 17 17 17 17 17 17 17 17 17 17 17 17 17 17 17 17 17 17 17 17 17 16 16 16 16 16 16 16 16 16 16 16 16 16
18 18 17 17 17 17 17 17 17 17 17 17 17 18 17 17 17 17 17 17 17 17 17 17 17 17 17 17 17 16 16 16 16 16 16 16 16 16 16 16 16 16 16
18 18 17 17 17 17 17 17 17 17 17 17 17 17 17 17 17 17 17 17 17 17 17 17 17 16 16 17 17 17 17 16 16 16 16 16 16 16 16 16 16 16 16
18 18 18 17 17 17 17 17 17 17 17 17 17 17 18 18 17 18 17 17 17 17 17 17 16 16 16 16 16 17 17 16 16 16 16 16 16 16 16 16 16 16 16
18 18 18 18 17 17 17 17 17 17 17 17 17 17 18 18 18 18 17 17 17 17 17 17 16 16 16 16 16 16 17 17 17 16 16 16 16 16 16 16 16 15 15
18 18 18 18 18 17 17 17 17 17 17 17 17 17 17 17 17 18 17 17 17 17 17 17 17 16 16 16 16 17 17 17 17 16 16 16 16 16 16 16 15 15 15
18 18 18 18 18 17 17 17 17 17 17 17 17 17 17 17 17 17 18 17 17 17 17 17 17 17 16 16 16 16 17 17 17 16 16 16 16 16 16 16 16 15 15
18 18 18 18 18 17 17 17 18 17 17 17 17 17 17 17 17 17 17 17 17 17 17 17 17 17 16 16 16 16 17 17 16 16 16 16 16 16 16 16 15 15 15
18 18 18 18 18 18 18 18 17 17 17 17 17 17 17 17 17 17 17 17 17 17 17 17 17 17 16 16 16 16 17 16 16 16 16 16 16 16 16 16 15 15 15
18 18 18 18 18 18 17 17 17 17 17 17 17 17 17 17 17 16 17 17 17 17 17 17 17 16 16 16 16 16 16 16 16 16 16 16 16 16 16 16 15 15 15
18 18 18 18 18 18 17 17 17 17 17 17 17 17 17 17 16 16 16 16 17 17 18 17 17 16 16 16 16 16 16 16 16 16 16 16 16 16 16 16 15 15 15
18 18 17 17 17 17 17 17 17 17 17 17 16 16 16 16 16 16 16 16 16 16 17 17 16 16 16 16 16 16 16 16 16 16 16 16 16 16 16 16 15 15 15
18 18 17 17 17 17 17 17 16 16 16 16 16 16 16 16 16 16 16 16 16 16 16 16 16 16 16 16 16 16 15 16 16 16 16 16 16 16 16 15 15 15 15
18 17 17 17 17 17 17 17 16 16 16 16 16 16 16 16 16 16 16 16 16 16 16 16 16 16 15 15 15 15 15 15 15 16 16 16 16 15 15 15 15 15 15
18 17 17 17 17 17 17 16 16 16 16 16 16 16 16 16 16 15 15 16 16 16 15 15 16 15 15 15 15 15 15 15 15 15 15 15 15 15 15 15 15 15 15
17 17 17 17 17 16 16 16 16 16 16 16 16 16 15 15 15 15 15 15 15 15 15 15 15 15 15 15 15 15 15 15 15 15 15 15 15 15 15 15 15 15 14
17 17 17 16 16 16 16 16 16 16 16 15 15 15 15 15 15 15 15 15 15 15 15 15 15 15 15 15 15 15 15 14 14 14 14 14 14 14 14 14 14 14 14
17 17 16 16 16 16 16 16 16 15 15 15 15 15 15 15 15 15 15 15 15 14 14 15 15 15 15 15 14 14 14 14 14 14 14 14 14 14 14 14 14 14 14
16 16 16 16 16 16 15 15 15 15 15 15 15 15 15 15 15 15 15 15 14 14 14 14 14 14 14 14 14 14 14 14 14 14 13 13 13 13 13 13 13 13 13
16 16 16 15 15 15 15 15 15 15 15 15 15 15 15 14 15 14 14 14 14 14 14 14 14 14 14 14 14 14 13 13 13 13 13 13 13 13 13 13 13 13 13
15 15 15 15 15 15 15 15 15 14 14 14 14 14 14 14 14 14 14 14 14 14 14 14 14 14 14 14 13 13 13 13 13 13 13 13 13 13 12 13 13 12 12
15 15 14 14 14 14 14 15 14 14 13 14 14 14 14 14 14 14 14 14 13 14 13 13 13 13 13 13 13 13 13 12 13 13 13 12 12 12 12 12 12 12 12
Wind_Speed
4 4 4 4 4 5 5 4 3 3 3 3 3 4 4 3 3 3 6 9 9 9 9 9 9 9 10 10 10 9 9 9 9 10 10 10 10 10 9 9 9 8 8
4 4 4 3 3 3 3 3 3 3 3 2 2 2 3 3 4 4 4 7 10 9 9 9 9 9 10 10 10 10 9 9 9 9 10 11 11 10 10 10 10 10 10
4 3 3 4 3 4 4 3 3 3 3 3 2 2 2 2 2 3 4 5 7 10 10 10 9 9 9 10 10 10 10 10 9 9 9 9 10 10 10 10 10 10 10
5 4 3 3 3 4 4 3 3 3 3 2 2 1 1 2 2 3 4 4 4 5 9 10 10 10 10 10 11 11 11 11 10 10 9 9 10 10 10 10 10 10 11
5 5 4 3 4 4 3 4 3 3 2 2 2 2 2 2 2 3 3 3 4 4 5 8 11 11 10 10 11 11 11 11 11 10 10 10 10 10 10 10 10 9 10
6 5 4 4 4 3 3 3 3 3 2 2 2 1 1 2 2 2 3 3 4 5 5 5 8 10 12 10 10 10 10 11 11 11 10 10 10 10 10 10 10 10 10
5 5 4 4 4 4 4 4 4 4 4 3 2 2 2 3 3 3 3 3 3 4 4 5 6 6 8 12 12 11 10 11 12 11 11 11 11 10 10 10 10 10 10
6 6 5 4 4 4 4 4 4 4 3 3 3 2 2 3 3 3 3 3 3 3 4 5 5 6 6 6 8 12 11 11 12 11 11 11 11 11 11 11 11 11 10
6 5 5 5 4 5 4 5 5 5 4 4 4 3 2 2 1 3 3 3 3 3 4 4 5 6 7 6 6 10 12 12 12 12 12 11 11 11 12 12 11 11 11
6 6 5 5 4 4 4 5 5 5 5 4 3 4 4 2 2 2 3 3 3 4 4 4 5 6 7 7 7 7 10 12 12 12 12 12 12 12 12 12 12 12 12
5 5 5 5 5 4 4 4 4 5 5 5 4 3 3 3 5 4 3 3 4 4 5 5 5 5 6 7 8 8 9 11 13 13 13 12 12 11 11 11 12 12 12
5 6 6 5 5 4 5 5 5 6 5 4 4 4 4 3 4 4 5 5 5 4 4 4 5 5 6 6 7 6 9 11 13 13 13 13 12 12 11 11 11 11 11
5 6 6 5 5 5 5 5 5 5 5 5 5 5 4 5 4 5 5 5 5 5 4 6 5 5 6 6 6 8 10 11 12 13 13 13 13 13 12 12 11 11 11
5 5 6 5 5 5 5 5 5 5 5 5 6 5 4 5 5 5 5 5 5 5 5 6 5 6 5 6 5 8 8 11 12 13 13 13 13 13 13 12 11 11 11
5 6 6 5 5 5 5 5 5 5 5 6 6 6 6 5 5 5 6 6 6 6 6 5 5 5 5 5 5 7 7 9 11 12 12 13 13 13 13 12 12 11 11
5 5 5 5 5 5 5 6 5 5 6 5 5 5 6 6 5 6 6 6 6 7 7 5 5 4 4 5 5 7 7 9 12 12 12 12 12 12 12 12 12 12 11
6 6 5 5 5 5 5 5 6 5 6 6 6 6 6 6 5 6 5 6 6 7 8 7 5 4 5 6 4 6 8 8 9 13 12 11 11 12 12 12 12 11 10
7 6 6 6 6 5 5 6 6 6 6 7 7 6 7 6 7 7 6 7 7 7 8 8 6 5 6 7 6 6 6 7 6 9 12 11 11 11 12 12 11 11 11
7 7 6 6 6 5 6 6 6 6 7 7 7 7 7 7 7 6 7 7 7 7 7 8 8 5 6 6 6 6 6 5 6 7 11 12 12 12 12 12 12 12 11
7 6 7 6 6 6 6 6 6 7 7 7 7 7 8 7 8 7 7 7 7 7 7 7 7 6 6 6 5 6 5 5 5 5 5 7 10 12 12 12 12 12 12
7 6 6 6 6 6 6 6 6 7 7 8 8 8 8 7 7 7 7 7 7 7 7 7 7 7 6 5 6 6 6 5 5 5 4 5 7 8 9 12 13 12 12
6 6 6 6 6 5 3 3 5 6 7 8 8 7 8 8 8 8 8 8 8 8 8 8 8 8 7 7 6 6 6 6 5 4 5 5 5 5 6 8 11 13 13
6 6 6 6 6 5 4 4 5 6 7 7 7 7 7 7 7 8 8 9 9 9 10 10 10 10 8 7 6 7 7 8 7 5 5 6 5 6 6 6 10 13 14
5 5 6 6 6 5 4 5 5 7 7 7 8 8 8 8 7 7 8 8 8 8 8 9 9 9 8 7 7 8 8 8 8 6 6 6 6 6 5 5 10 13 13
5 5 5 5 5 5 4 5 6 6 6 8 8 8 8 8 5 6 8 8 8 8 7 7 7 7 6 6 6 6 7 7 7 6 5 5 5 5 5 5 7 14 14
4 4 4 4 5 5 4 5 7 6 6 7 7 7 7 7 5 5 8 8 9 8 6 5 5 7 7 7 8 8 8 8 6 5 5 5 5 4 5 5 5 7 9
Wind_Direction
154 152 146 152 169 163 164 169 176 170 181 184 197 195 201 201 198 181 154 165 185 193 195 196 199 201 203 204 204 203 205 206 207 208 209 208 207 208 209 209 208 207 207
147 155 158 169 174 178 169 175 178 180 190 181 197 204 214 212 195 200 187 172 183 191 198 200 202 206 206 204 205 206 209 211 210 209 212 214 214 213 212 214 218 217 216
157 170 165 181 179 180 174 187 185 191 192 191 192 193 207 217 206 207 212 197 184 186 194 201 204 209 212 210 211 211 213 214 213 212 214 216 216 214 215 216 218 220 221
173 185 181 184 177 185 179 181 202 199 195 202 192 198 197 182 205 212 218 211 210 196 187 195 205 210 215 218 217 216 215 214 214 214 214 216 217 216 217 219 219 220 222
186 197 196 182 195 192 192 206 188 202 199 200 202 194 213 209 206 214 218 217 216 218 208 187 199 208 215 221 221 219 216 213 212 212 213 216 218 216 216 217 215 214 217
196 208 200 189 203 198 201 202 192 198 208 210 231 213 233 222 219 218 226 213 208 214 222 219 208 204 207 214 217 217 218 216 212 210 212 215 215 213 214 216 215 215 215
200 211 220 193 210 210 212 207 202 195 199 192 211 227 221 210 208 218 227 231 218 215 222 223 230 221 197 200 209 213 217 217 214 213 214 217 218 217 217 219 218 218 217
209 208 218 218 209 209 210 209 210 217 215 209 222 235 231 200 193 211 218 220 232 219 218 220 223 227 232 210 197 205 215 218 217 214 216 218 219 218 219 221 220 219 218
208 221 217 222 215 217 210 212 215 219 221 223 230 247 256 250 251 193 210 216 222 231 233 234 228 227 227 226 214 199 209 216 216 216 217 218 219 219 222 223 224 223 223
209 209 213 216 220 223 217 226 214 224 225 230 223 237 260 292 281 253 210 203 214 226 235 239 233 228 228 227 222 219 209 214 216 218 219 218 219 222 223 224 226 226 226
208 211 208 211 216 224 221 228 218 225 227 236 237 229 230 237 240 252 256 241 227 227 225 232 239 234 229 227 224 216 204 212 216 219 220 219 220 222 223 226 227 230 229
199 203 205 208 215 220 217 218 222 220 230 237 246 240 236 239 239 244 256 252 250 246 237 239 237 230 228 227 223 201 205 213 216 217 218 217 219 221 223 226 229 231 231
198 197 205 205 210 215 219 218 217 228 226 228 234 240 243 247 253 255 255 260 263 258 244 239 230 229 227 223 219 199 211 212 214 216 218 219 219 220 223 226 228 230 231
213 197 202 206 212 218 222 218 224 222 225 232 238 242 245 244 243 242 249 259 261 256 244 243 232 224 231 231 221 205 218 206 214 217 219 220 220 219 220 223 224 227 229
211 204 206 210 214 217 224 225 228 228 226 232 237 232 240 241 242 243 245 250 258 266 262 239 238 228 232 235 211 223 228 204 209 217 219 218 216 215 216 217 221 224 227
215 211 212 217 219 219 221 229 230 227 232 235 241 245 246 247 243 245 245 245 250 259 265 259 251 241 243 250 216 233 232 205 208 213 217 218 217 215 214 215 219 221 220
209 210 213 217 220 220 220 225 237 232 233 237 240 237 240 252 251 246 243 244 246 250 258 265 262 247 237 254 241 243 239 230 218 203 209 212 215 216 214 212 213 214 214
213 211 212 214 220 219 219 224 234 236 238 240 242 242 240 237 240 250 249 247 248 247 251 261 263 252 240 242 242 244 243 236 236 187 191 202 207 210 211 209 209 210 211
214 215 212 215 219 220 220 224 233 239 243 244 243 241 242 241 243 244 247 250 251 248 247 253 258 252 251 241 238 238 243 237 238 189 182 195 201 204 206 206 206 208 207
216 218 217 220 221 223 224 228 233 237 241 245 244 244 245 241 243 246 247 248 253 253 248 250 252 250 247 236 231 238 238 228 233 221 199 194 192 199 204 205 207 209 208
217 218 220 220 223 225 227 230 237 241 242 244 242 241 242 244 255 256 259 256 253 254 254 248 248 248 245 235 237 240 241 239 230 221 218 214 199 207 206 207 209 209 209
216 216 221 221 223 229 202 223 246 246 245 244 242 240 240 233 237 236 251 261 264 260 260 257 252 250 246 242 243 246 242 240 245 213 224 234 223 223 218 213 197 201 208
213 217 222 222 224 226 194 203 237 250 248 247 246 246 250 243 236 245 237 233 244 251 254 257 257 256 254 247 244 243 240 241 246 230 220 239 229 230 226 210 185 193 201
216 222 224 228 231 222 190 209 230 241 248 248 247 245 248 253 250 256 257 253 249 246 243 245 254 259 259 255 245 244 244 245 247 233 223 241 239 238 233 214 181 187 196
219 226 230 230 232 230 199 211 233 243 246 250 250 248 248 249 248 256 253 254 255 254 238 234 247 254 262 256 245 244 240 241 246 239 222 236 244 248 244 230 193 185 193
218 226 229 232 235 242 212 212 235 243 247 251 249 245 241 248 249 245 249 252 255 256 258 245 236 240 243 237 224 230 237 239 247 248 222 222 238 244 248 237 218 202 203
Height
1550 1551 1552 1554 1556 1558 1559 1560 1562 1562 1564 1564 1565 1566 1567 1568 1569 1569 1569 1569 1570 1570 1571 1572 1572 1573 1574 1575 1576 1576 1577 1578 1578 1579 1579 1580 1581 1582 1582 1583 1584 1584 1585
1550 1552 1553 1555 1557 1558 1560 1560 1562 1562 1563 1564 1565 1566 1566 1567 1567 1568 1569 1569 1569 1569 1570 1571 1571 1572 1573 1574 1574 1575 1576 1576 1577 1578 1578 1579 1579 1580 1581 1581 1582 1583 1583
1550 1552 1554 1555 1557 1558 1559 1560 1561 1562 1562 1563 1564 1564 1565 1565 1566 1566 1567 1568 1568 1568 1568 1569 1570 1571 1571 1572 1573 1574 1574 1575 1575 1576 1576 1577 1578 1578 1579 1579 1580 1581 1581
1551 1552 1554 1555 1556 1558 1558 1559 1560 1561 1562 1563 1563 1564 1564 1564 1564 1565 1566 1566 1567 1567 1567 1568 1568 1569 1570 1570 1571 1572 1572 1573 1573 1574 1574 1575 1575 1576 1577 1577 1578 1578 1579
1551 1552 1553 1554 1555 1557 1558 1559 1560 1560 1561 1561 1562 1562 1563 1563 1563 1563 1564 1564 1565 1565 1566 1566 1566 1567 1568 1568 1569 1569 1570 1571 1571 1571 1572 1572 1573 1574 1574 1575 1575 1576 1576
1550 1551 1553 1553 1555 1556 1556 1557 1557 1558 1559 1560 1561 1561 1561 1562 1562 1562 1562 1563 1563 1564 1564 1565 1565 1565 1565 1566 1566 1567 1568 1568 1569 1569 1570 1570 1571 1571 1572 1572 1572 1573 1574
1549 1550 1552 1552 1553 1554 1555 1555 1556 1557 1557 1558 1559 1560 1560 1560 1560 1560 1561 1561 1562 1562 1562 1563 1563 1564 1563 1563 1564 1564 1565 1566 1566 1567 1567 1568 1568 1569 1569 1569 1570 1570 1571
1548 1549 1549 1551 1551 1552 1553 1553 1554 1555 1556 1557 1558 1558 1558 1560 1558 1559 1559 1559 1559 1560 1560 1561 1561 1561 1561 1562 1561 1562 1562 1563 1563 1564 1564 1565 1565 1566 1566 1567 1567 1567 1568
1546 1547 1548 1549 1549 1551 1551 1551 1552 1553 1554 1555 1556 1557 1557 1556 1557 1558 1557 1557 1557 1558 1558 1558 1558 1558 1558 1559 1559 1559 1559 1560 1560 1561 1561 1561 1562 1563 1563 1564 1564 1565 1565
1545 1546 1546 1547 1548 1549 1549 1550 1551 1551 1552 1553 1554 1554 1555 1555 1556 1556 1557 1556 1555 1555 1556 1556 1556 1556 1555 1556 1555 1556 1556 1556 1557 1557 1558 1558 1559 1560 1560 1561 1561 1562 1562
1543 1544 1544 1545 1545 1547 1547 1547 1548 1549 1549 1551 1552 1552 1552 1553 1554 1554 1554 1554 1554 1554 1554 1553 1553 1553 1553 1553 1552 1552 1553 1553 1553 1554 1554 1555 1555 1556 1557 1558 1558 1559 1559
1541 1541 1542 1542 1543 1544 1544 1545 1545 1546 1547 1547 1548 1550 1550 1551 1551 1552 1552 1552 1552 1552 1551 1551 1551 1551 1550 1550 1550 1549 1549 1549 1550 1550 1551 1551 1552 1553 1553 1554 1555 1555 1556
1538 1538 1540 1540 1541 1541 1542 1542 1542 1543 1544 1544 1545 1546 1547 1548 1548 1549 1549 1549 1549 1549 1548 1548 1548 1548 1547 1547 1546 1546 1546 1546 1546 1547 1548 1548 1549 1549 1550 1550 1551 1551 1552
1536 1536 1536 1537 1538 1538 1539 1539 1540 1540 1541 1541 1543 1543 1543 1544 1545 1546 1546 1546 1546 1546 1545 1546 1545 1545 1544 1544 1543 1542 1542 1542 1543 1543 1544 1545 1545 1546 1546 1547 1547 1548 1548
1533 1533 1534 1534 1535 1535 1536 1537 1538 1537 1538 1539 1540 1540 1540 1541 1542 1542 1543 1543 1544 1543 1542 1542 1542 1542 1541 1541 1540 1539 1539 1538 1539 1540 1540 1541 1541 1542 1542 1543 1543 1544 1544
1529 1530 1531 1532 1532 1533 1533 1534 1535 1535 1535 1536 1536 1536 1537 1538 1538 1539 1539 1539 1540 1540 1539 1539 1539 1539 1538 1538 1536 1536 1535 1535 1535 1536 1537 1537 1538 1538 1538 1539 1539 1540 1541
1526 1526 1527 1528 1529 1529 1530 1530 1532 1532 1532 1533 1533 1533 1533 1534 1535 1535 1535 1536 1536 1536 1535 1535 1535 1534 1533 1533 1533 1532 1532 1532 1532 1532 1533 1533 1534 1534 1535 1535 1536 1536 1537
1523 1523 1524 1525 1525 1526 1527 1527 1528 1529 1529 1530 1530 1530 1530 1530 1530 1531 1531 1532 1532 1531 1531 1530 1530 1530 1529 1529 1528 1528 1529 1529 1529 1529 1529 1529 1530 1530 1531 1531 1532 1532 1533
1519 1520 1520 1521 1522 1523 1524 1524 1525 1525 1526 1526 1526 1526 1526 1526 1526 1527 1527 1527 1527 1527 1527 1526 1526 1526 1525 1525 1525 1525 1525 1524 1525 1525 1525 1525 1526 1526 1527 1527 1528 1528 1529
1516 1516 1517 1518 1518 1519 1520 1520 1521 1521 1521 1522 1522 1522 1522 1522 1522 1523 1523 1522 1522 1522 1522 1522 1521 1521 1521 1521 1521 1521 1521 1521 1521 1522 1521 1521 1521 1522 1523 1523 1524 1524 1525
1512 1513 1513 1514 1515 1516 1516 1516 1516 1517 1517 1517 1517 1518 1518 1518 1518 1518 1519 1518 1518 1518 1518 1517 1517 1517 1517 1517 1517 1517 1518 1518 1518 1518 1518 1518 1518 1518 1518 1518 1519 1519 1520
1509 1509 1510 1510 1511 1512 1512 1512 1512 1512 1513 1513 1513 1513 1513 1513 1513 1514 1513 1513 1513 1513 1513 1512 1512 1512 1512 1512 1513 1513 1514 1514 1514 1514 1514 1514 1514 1514 1514 1514 1514 1515 1516
1505 1505 1506 1506 1507 1508 1508 1508 1508 1508 1508 1508 1508 1508 1509 1510 1509 1509 1508 1508 1508 1508 1508 1508 1507 1507 1507 1508 1508 1508 1509 1509 1509 1509 1510 1510 1510 1510 1510 1510 1510 1511 1511
1501 1502 1502 1503 1503 1503 1504 1504 1504 1504 1504 1504 1504 1504 1504 1504 1504 1504 1504 1504 1504 1503 1503 1502 1502 1501 1502 1502 1503 1504 1504 1504 1504 1505 1505 1505 1505 1506 1506 1506 1506 1506 1507
1496 1497 1498 1499 1499 1499 1499 1499 1500 1499 1499 1499 1500 1500 1500 1500 1500 1500 1500 1499 1499 1498 1498 1497 1497 1497 1496 1496 1497 1498 1499 1500 1499 1500 1500 1500 1501 1502 1502 1502 1502 1502 1502
1493 1493 1494 1494 1494 1495 1495 1495 1495 1495 1495 1495 1495 1495 1495 1495 1495 1495 1495 1495 1494 1494 1494 1493 1493 1492 1492 1491 1492 1493 1494 1495 1494 1495 1495 1496 1496 1497 1497 1498 1498 1498 1498